Lapse_Rate
6.5 6.7 6.7 6.8 6.7 6.7 6.7 6.7 6.7 6.7 6.6 6.5 6.4 6.4 6.4 6.4 6.4 6.4 6.3 6.4 6.4 6.5 6.6 6.6 6.7 6.8 6.6 6.3 6.4 6.7 6.8 6.7 6.7 6.3 6.2 6.2 6.0 5.9 5.8 5.9 5.8 5.6 5.7
6.4 6.8 6.8 6.8 6.7 6.7 6.7 6.7 6.8 6.7 6.6 6.7 6.6 6.5 6.3 6.1 6.1 6.3 6.3 6.4 6.4 6.5 6.7 6.7 6.8 6.7 6.7 6.8 6.6 6.4 6.7 6.8 6.8 6.7 6.4 6.3 6.2 6.0 5.9 5.8 5.8 5.6 5.6
6.4 6.7 6.7 6.9 6.9 6.8 6.7 6.7 6.7 6.5 6.4 6.5 6.4 6.3 6.3 6.2 6.1 6.1 6.4 6.6 6.3 6.3 6.4 6.2 6.4 6.5 6.6 6.6 6.7 6.8 6.6 6.7 6.8 6.8 6.7 6.6 6.5 6.3 6.1 6.0 5.9 5.7 5.6
6.5 6.7 6.8 6.8 6.8 6.7 6.7 6.5 6.3 6.2 6.2 6.3 6.1 6.2 6.2 6.1 6.1 6.1 6.1 6.2 6.2 6.5 6.3 6.4 6.3 6.3 6.2 6.3 6.5 6.6 6.8 6.9 6.8 6.8 6.7 6.7 6.6 6.4 6.3 6.2 6.1 6.0 5.8
6.5 6.6 6.8 6.8 6.8 6.7 6.5 6.3 6.2 6.0 6.1 6.1 6.2 6.2 5.9 6.0 6.2 6.3 6.3 6.2 6.2 6.2 6.4 6.2 6.3 6.3 6.2 6.2 6.1 6.4 6.5 6.7 7.0 6.8 6.8 6.7 6.7 6.5 6.4 6.2 6.2 6.1 5.8
6.5 6.6 6.6 6.6 6.6 6.6 6.5 6.3 6.0 5.9 6.0 6.0 6.0 5.9 6.0 6.1 6.3 6.4 6.3 6.3 6.3 6.2 6.2 6.2 6.3 6.1 5.9 6.0 6.0 6.1 6.3 6.5 6.7 7.0 6.7 6.8 6.7 6.6 6.5 6.3 6.2 6.1 5.9
6.5 6.5 6.4 6.4 6.4 6.5 6.4 6.2 6.0 5.9 5.8 5.9 5.9 5.8 6.1 6.2 6.2 6.0 6.1 6.1 6.1 6.2 6.1 6.1 5.9 5.9 6.1 5.9 5.7 5.9 6.1 6.4 6.5 6.7 6.8 6.7 6.7 6.6 6.5 6.5 6.3 6.1 6.0
6.4 6.3 6.3 6.3 6.3 6.3 6.4 6.1 5.9 5.9 5.8 5.7 5.8 5.9 6.1 6.0 6.0 5.9 6.0 6.0 6.0 6.0 6.0 5.9 5.9 5.8 5.7 5.7 5.8 5.8 6.0 6.3 6.5 6.5 6.7 6.6 6.6 6.6 6.6 6.5 6.5 6.3 6.1
6.2 6.2 6.1 6.0 6.1 6.1 6.2 5.9 5.8 5.7 5.7 5.9 5.9 5.8 5.9 5.7 6.2 6.1 5.8 6.0 5.9 6.0 6.0 6.1 5.9 5.9 5.7 5.7 5.7 5.9 6.0 6.2 6.4 6.4 6.4 6.5 6.5 6.5 6.5 6.5 6.5 6.5 6.3
6.0 6.0 5.9 5.9 5.9 5.9 6.0 6.0 5.9 5.8 5.8 6.0 5.8 5.7 5.7 5.6 5.6 6.1 6.7 5.9 5.8 5.9 5.8 6.0 6.0 5.9 5.8 5.7 5.9 5.8 6.2 6.2 6.3 6.4 6.4 6.4 6.4 6.4 6.4 6.4 6.4 6.5 6.5
5.9 5.9 6.0 6.0 5.9 5.9 5.9 5.9 6.0 6.1 6.2 6.0 5.8 5.7 5.8 5.7 5.8 5.7 5.1 6.4 5.9 5.9 5.8 6.0 6.1 6.0 5.8 5.8 5.9 6.2 6.3 6.3 6.2 6.4 6.4 6.3 6.4 6.3 6.2 6.3 6.3 6.4 6.4
6.0 6.0 6.2 6.1 6.0 5.9 6.0 6.1 6.0 6.0 5.9 6.0 6.0 5.9 6.0 6.0 6.1 5.7 5.6 5.0 5.7 6.5 6.0 6.0 6.2 6.4 6.3 6.2 6.0 6.2 6.2 6.2 6.2 6.3 6.3 6.3 6.3 6.4 6.3 6.1 6.1 6.2 6.3
6.0 6.0 6.1 6.1 6.0 6.1 6.1 6.1 6.1 6.0 5.9 5.9 5.9 6.1 6.2 6.1 6.0 5.8 5.4 5.3 5.9 6.1 6.0 6.0 6.0 6.3 6.4 6.3 6.1 6.2 6.2 6.2 6.1 6.1 6.1 6.2 6.2 6.2 6.2 6.1 6.1 6.1 6.1
6.1 6.1 6.1 6.1 6.1 6.1 6.0 6.0 5.9 5.7 5.6 5.7 5.8 5.8 5.9 5.8 5.9 5.7 5.7 5.7 6.0 5.9 6.3 6.3 6.1 6.1 6.2 6.3 6.1 6.1 6.4 6.1 6.1 6.0 6.0 5.9 5.9 5.9 5.9 6.0 6.0 6.0 6.0
6.2 6.2 6.1 6.1 6.1 6.1 6.1 6.0 5.7 5.6 5.7 5.4 5.4 5.3 5.6 5.9 6.0 6.0 5.9 6.1 6.0 5.7 5.9 6.4 6.5 6.3 6.2 6.4 6.3 6.2 6.2 6.2 6.1 6.0 6.2 6.0 5.8 5.7 5.8 5.7 5.8 5.9 6.0
6.3 6.3 6.1 6.1 6.1 6.1 5.9 5.7 5.8 5.6 5.5 5.2 5.2 5.4 5.4 5.8 5.9 5.9 6.1 6.1 6.1 6.0 5.8 6.0 6.5 6.5 6.4 6.5 6.4 6.3 5.9 6.4 6.1 6.1 6.2 6.2 6.1 5.8 5.7 5.6 5.7 5.8 5.9
6.3 6.2 6.1 6.1 6.1 6.0 5.8 5.7 5.7 5.6 5.5 5.3 5.1 5.2 5.5 5.6 6.0 6.3 6.4 6.2 6.1 6.1 6.2 5.8 6.0 6.2 6.2 6.4 6.5 6.3 5.8 5.9 6.5 6.0 6.2 6.1 6.1 6.0 5.8 5.7 5.7 5.8 5.9
6.3 6.2 6.3 6.2 6.1 6.0 5.8 5.7 5.6 5.7 5.7 5.2 5.3 5.5 5.7 5.9 6.2 6.2 6.4 6.3 6.1 6.2 6.3 6.3 6.2 6.4 6.1 6.1 6.5 6.5 6.0 6.0 6.0 6.1 6.2 6.2 6.0 5.9 5.7 5.7 5.7 5.7 5.9
6.3 6.1 6.3 6.3 6.1 6.1 5.8 5.6 5.6 5.5 5.4 5.3 5.3 5.8 5.6 6.0 6.4 6.0 6.2 6.4 6.2 6.3 6.5 6.3 6.0 6.1 6.5 6.2 6.3 6.4 6.0 5.9 5.9 6.0 5.9 6.1 6.1 5.9 5.7 5.6 5.7 5.7 5.7
6.4 6.3 6.3 6.1 6.1 6.3 6.1 5.8 5.6 5.6 5.8 5.6 5.6 5.8 5.7 6.3 6.4 6.2 6.4 6.2 6.3 6.3 6.3 6.3 6.1 5.9 6.3 6.2 6.1 6.5 6.3 6.1 5.9 5.7 6.0 6.1 6.0 5.9 5.7 5.7 5.7 5.7 5.7
6.6 6.6 6.3 6.1 6.3 6.0 6.3 6.0 5.9 5.8 5.9 5.8 5.6 6.0 5.8 6.3 6.4 6.4 6.6 6.5 6.3 6.2 6.1 5.8 5.3 5.1 5.8 6.0 6.2 6.4 6.4 6.3 6.3 5.7 5.7 5.9 6.0 5.9 6.0 5.5 5.6 5.5 5.6
6.7 6.6 6.6 6.4 6.2 6.3 6.3 6.1 6.1 6.2 6.0 6.1 6.0 6.1 6.5 7.1 6.9 6.9 6.8 6.5 6.5 6.1 5.6 5.3 5.7 5.5 4.8 5.2 5.9 5.9 6.1 6.0 6.1 6.1 5.5 5.5 5.6 5.7 5.6 5.6 5.5 5.5 5.5
6.9 6.7 6.6 6.1 6.0 6.2 6.4 6.3 6.1 6.1 6.1 6.3 6.5 7.3 7.0 6.8 6.9 6.7 6.8 6.9 6.7 6.3 5.8 5.5 5.7 5.6 5.5 5.2 5.5 5.8 6.1 6.2 6.1 5.8 5.8 5.6 5.6 5.6 5.4 5.3 5.3 5.1 5.1
6.5 6.6 6.5 6.3 6.3 6.7 6.4 6.5 6.6 6.2 6.2 6.6 7.2 7.4 7.2 7.1 6.8 6.9 6.9 7.1 7.1 7.0 6.2 6.1 6.2 6.0 5.7 5.7 5.3 5.5 6.1 6.0 6.1 6.1 5.9 5.7 5.5 5.7 5.4 5.1 5.1 4.8 4.8
6.6 6.6 6.6 6.6 6.9 6.7 6.4 6.4 6.2 6.2 6.6 7.6 7.9 7.6 7.3 6.7 6.9 6.9 6.6 7.0 7.1 6.9 6.5 6.2 6.1 6.1 6.1 5.9 5.8 5.7 6.1 5.9 6.0 5.9 6.1 5.9 5.7 5.8 5.5 5.1 5.0 4.8 4.4
6.8 6.9 6.9 6.8 6.8 6.7 6.6 6.9 6.9 6.5 7.3 7.7 7.5 7.4 6.9 7.1 6.8 6.8 6.5 7.0 6.1 6.5 6.1 5.8 5.7 6.3 6.3 6.2 6.0 5.7 5.7 6.0 5.9 6.0 6.1 6.0 5.7 5.8 5.8 5.2 4.8 4.5 4.4
Wind_Speed
4 5 3 2 3 5 4 7 10 10 11 12 12 12 13 14 15 17 17 26 25 23 22 21 20 19 20 20 20 20 21 20 22 23 24 24 25 25 25 26 26 23 20
5 7 6 5 4 3 4 7 9 9 10 11 11 11 12 12 11 13 16 18 22 22 20 19 19 19 19 19 18 19 19 20 19 19 22 23 24 24 25 23 26 28 27
5 6 6 6 5 4 2 8 7 9 9 10 10 10 11 11 10 8 8 16 20 21 20 18 18 18 18 17 16 16 17 18 18 18 18 21 22 23 23 24 24 25 28
6 5 6 6 6 6 6 7 6 5 6 6 6 6 8 10 8 8 8 9 7 13 17 15 16 17 18 18 17 16 16 16 16 17 17 17 18 20 22 23 24 24 25
5 4 6 7 6 6 5 6 5 5 6 6 6 5 6 6 6 7 7 7 7 8 10 11 14 14 15 16 16 16 15 15 15 15 16 16 17 18 19 21 22 23 24
7 6 6 7 7 7 6 6 6 5 6 6 6 5 4 4 4 4 5 6 6 6 7 6 8 12 14 16 16 16 15 15 14 14 14 15 16 17 18 18 19 21 21
9 7 8 6 5 5 6 7 6 8 6 6 6 5 4 3 2 2 2 4 4 6 5 5 7 6 10 14 15 16 15 15 14 13 13 14 14 15 16 16 17 17 18
11 9 9 7 7 6 7 8 8 6 6 7 5 6 5 5 4 1 1 2 2 2 4 6 6 6 7 9 11 15 15 14 13 13 12 12 13 14 14 14 15 15 15
12 9 9 8 9 9 7 8 8 8 7 6 7 4 2 3 7 5 3 2 2 1 2 4 4 5 5 6 5 11 14 13 12 12 12 13 12 12 13 14 13 14 14
13 12 11 11 10 9 8 8 10 7 5 6 4 5 5 7 3 5 5 4 3 3 2 2 3 3 4 5 10 12 11 11 11 10 10 11 11 12 12 12 12 12 14
14 14 13 12 11 9 10 8 7 7 5 5 5 3 4 4 5 4 3 6 4 4 5 5 1 1 2 2 4 8 9 9 10 9 9 9 10 11 11 11 12 11 12
11 14 14 13 12 10 10 9 9 8 6 5 4 4 5 4 5 5 5 4 5 7 4 5 6 3 2 1 5 2 4 5 7 8 7 7 9 9 10 10 11 11 11
9 11 15 12 11 12 11 11 9 7 7 7 8 6 6 5 4 4 4 5 3 5 4 5 6 5 2 2 6 5 7 5 4 6 6 6 8 9 9 9 9 10 11
10 16 16 15 15 14 12 12 10 7 9 7 8 6 5 5 4 5 6 5 5 5 5 5 8 7 4 3 2 3 8 5 4 3 4 4 7 9 8 7 7 8 10
11 16 17 16 17 17 16 15 8 10 8 7 7 7 7 6 6 5 5 5 6 6 8 9 5 10 5 5 6 3 4 8 3 2 1 4 6 8 8 7 6 6 8
13 14 16 16 16 17 16 15 10 11 10 8 7 9 9 7 7 6 6 5 5 5 5 7 7 7 8 6 8 3 2 5 11 6 4 2 5 6 6 5 5 6 6
14 15 16 16 15 14 15 12 12 11 13 9 10 9 11 9 7 6 6 6 6 5 6 2 2 8 6 7 5 4 4 4 12 9 4 1 2 3 3 4 5 6 6
14 15 16 16 16 17 12 14 14 12 12 13 12 11 12 9 11 9 7 8 7 7 6 8 7 6 7 8 5 5 4 3 2 10 5 3 3 4 3 4 5 5 5
16 16 16 16 16 14 15 13 13 13 12 11 10 13 12 13 12 9 10 8 7 7 7 6 6 5 4 5 5 7 5 4 6 12 6 9 9 6 5 3 3 1 3
17 17 16 16 16 16 16 14 12 12 12 11 9 8 12 14 13 11 11 11 9 8 8 5 6 6 5 5 4 5 4 4 3 5 4 6 9 10 11 8 5 3 3
17 17 17 15 14 14 11 15 15 13 12 12 12 13 12 15 15 14 10 11 10 8 6 4 4 5 6 5 6 5 3 3 3 2 5 5 4 5 7 13 5 6 4
17 17 16 16 16 11 15 20 15 13 14 15 14 14 12 14 9 11 4 5 6 8 8 3 4 5 8 6 4 4 4 4 3 2 3 5 5 4 3 1 7 4 6
14 13 14 14 15 15 16 20 21 13 14 16 14 14 13 10 13 8 7 4 5 7 6 1 6 2 6 7 6 6 5 5 4 3 3 5 6 4 3 1 7 5 3
13 13 14 16 16 14 17 22 24 17 13 15 16 16 14 13 13 11 9 8 7 8 9 7 4 3 5 10 5 7 6 5 4 6 5 5 4 4 7 9 4 9 4
13 13 14 15 15 14 18 23 21 16 16 18 14 14 15 11 17 17 7 8 9 10 16 11 4 5 3 1 2 4 5 5 5 5 6 4 4 5 6 9 5 10 8
11 9 12 14 18 17 16 23 22 13 17 11 12 12 11 6 18 17 10 10 8 9 9 8 9 10 8 10 8 10 7 6 6 4 2 1 4 4 3 4 4 14 12
Wind_Direction
108 117 96 82 99 143 141 111 127 112 105 97 91 86 80 81 96 96 78 64 61 58 55 52 51 51 51 46 42 42 39 36 35 34 34 33 32 33 36 35 36 36 35
134 131 142 134 126 134 142 138 130 135 110 108 95 88 84 82 76 105 107 86 78 67 60 56 55 51 48 46 42 41 41 37 37 33 32 31 32 31 32 33 35 35 34
146 137 134 137 121 100 129 112 138 118 123 105 105 102 101 92 85 76 76 121 97 79 64 55 55 52 47 42 39 40 39 35 35 34 32 32 31 30 31 33 33 34 34
150 159 149 134 126 163 153 143 146 136 132 127 113 106 105 106 99 86 65 44 46 110 85 73 67 56 48 40 34 32 33 33 34 30 31 29 28 29 30 32 34 33 32
160 154 133 123 179 147 153 168 152 148 131 131 124 117 114 115 105 86 88 82 56 35 91 105 100 75 61 46 38 34 29 27 27 32 30 33 29 28 31 32 32 34 34
158 167 136 149 167 150 157 163 154 148 153 152 131 120 117 120 118 112 109 89 79 68 52 49 167 90 82 63 43 34 28 24 24 28 28 29 30 28 27 28 29 29 32
161 171 150 157 158 155 151 151 155 161 153 144 147 148 132 148 166 127 98 85 91 78 57 56 31 18 116 91 53 33 30 24 20 22 26 27 27 27 27 27 28 27 28
171 174 161 164 170 139 153 160 164 168 167 181 179 185 174 173 167 181 147 148 47 91 101 67 41 33 5 40 74 44 27 24 17 14 20 22 23 23 23 24 24 26 27
178 173 172 166 167 163 164 169 178 184 179 197 263 268 240 249 149 156 195 179 145 173 54 113 45 32 26 29 8 32 22 17 18 12 13 16 15 19 21 22 22 27 26
181 176 177 171 177 178 165 184 188 194 215 202 203 255 303 330 256 167 174 180 208 217 182 186 122 102 28 15 98 54 27 13 11 12 11 14 14 15 18 14 18 20 25
185 183 180 178 186 190 178 190 187 212 204 246 202 201 228 236 244 277 219 177 195 204 194 204 128 163 92 47 56 65 31 15 5 5 3 13 12 13 11 10 9 16 20
182 190 187 186 186 190 179 188 196 205 222 218 246 236 232 220 212 228 242 197 200 166 192 212 204 196 159 125 105 70 89 39 3 359 357 5 6 9 6 7 7 9 13
185 186 190 189 188 189 183 186 188 193 202 207 211 213 231 243 259 253 270 257 205 154 190 213 222 223 219 211 102 14 158 97 34 359 355 353 354 358 2 3 7 9 10
188 177 189 189 190 186 185 188 192 197 198 209 208 226 218 224 221 223 223 235 201 222 188 217 195 219 222 242 71 285 162 115 82 13 346 338 342 344 352 354 357 5 11
187 176 186 188 190 189 193 191 196 201 196 200 208 215 228 211 216 215 228 223 235 241 212 171 190 194 229 216 137 308 287 113 124 154 347 342 330 333 336 341 346 352 1
193 176 188 189 191 192 194 196 203 198 197 200 203 203 218 216 215 217 218 221 220 238 247 142 194 168 193 237 160 258 264 275 184 178 144 317 317 318 325 332 344 343 349
192 185 191 191 192 194 198 198 199 200 196 197 211 201 215 223 222 219 221 228 229 229 245 157 177 161 210 234 225 249 263 291 170 168 148 157 286 302 325 337 331 331 339
197 192 192 193 192 203 196 200 202 202 200 212 196 214 215 218 220 218 219 226 228 220 237 245 180 195 214 220 249 269 265 277 272 166 156 179 214 276 293 315 312 310 315
202 203 195 200 201 199 199 203 196 202 205 209 213 207 216 215 218 218 219 225 226 233 217 244 246 210 205 215 230 241 233 255 250 159 169 199 217 232 240 257 261 303 356
201 207 206 202 204 198 202 197 194 201 203 206 225 219 211 221 215 212 217 221 223 222 222 226 233 238 216 215 227 264 225 209 265 279 205 236 220 222 218 222 206 185 15
201 203 209 209 206 210 199 181 191 198 193 203 215 219 224 226 222 218 217 213 220 218 229 208 235 244 234 220 226 236 244 260 259 234 286 295 286 275 185 218 184 145 4
197 204 207 209 210 206 196 185 194 192 192 206 214 217 227 212 200 181 178 67 48 231 213 233 245 235 243 248 242 246 259 265 274 219 269 297 299 295 281 285 117 74 0
193 196 209 208 214 214 181 194 191 194 199 210 209 211 216 219 194 185 167 151 163 142 118 179 249 265 285 260 255 246 244 257 272 286 303 292 290 267 307 340 143 142 74
195 210 210 216 221 219 189 197 194 204 208 214 214 210 209 212 191 172 173 197 215 203 203 215 236 281 268 291 251 251 250 269 279 261 266 282 297 301 316 303 270 148 188
206 209 217 221 217 222 202 199 192 208 219 219 212 212 211 207 176 169 168 187 190 207 186 188 113 93 65 57 8 296 229 241 261 274 275 289 293 299 314 296 184 175 229
208 202 217 217 214 226 201 192 192 212 224 223 218 220 205 182 148 148 179 193 208 189 155 159 200 221 236 247 244 248 249 243 255 262 221 239 268 323 301 288 293 315 307